Regional Weather Roundup
Issued by NWS Midland/Odessa, TX

Home | Current Version | Previous Version | Text Only | Print | Product List | Glossary On
Versions: 1 2 3 4 5 6 7 8 9 10 11 12 13 14 15 16 17 18 19 20 21 22 23 24 25 26 27 28 29 30 31 32 33 34 35 36 37 38 39 40 41 42 43 44 45 46 47 48 49 50
000
ASUS44 KMAF 260101
RWRMAF
MIDLAND AREA WEATHER ROUNDUP
NATIONAL WEATHER SERVICE MIDLAND TX
700 PM CST THU DEC 25 2014

...IN SOUTHWEST TEXAS AND SOUTHEAST NEW MEXICO...

CITY           SKY/WX    TMP DP  RH WIND       PRES   REMARKS
ALPINE         CLOUDY    55  17  22 SW15      29.87R
ANDREWS        FAIR      51  24  34 S9        29.75R
ARTESIA        PTCLDY    54  16  22 S12       29.67R
BIG SPRING     CLOUDY    54  24  31 SE18G24   29.80R
CARLSBAD       MOCLDY    55  18  23 SE12      29.67R
DRYDEN           N/A     49  25  39 CALM      29.82F
FORT STOCKTON  CLOUDY    53  26  35 E9        29.76R
GUAD PASS      NOT AVBL
HOBBS          CLEAR     45  25  45 S7        29.73S
MARFA          CLOUDY    48  18  29 SE7       29.86R
MIDLAND AIRPK  MOCLDY    53  23  31 S16       29.77R
MIDLAND INTL   MOCLDY    51  24  34 S15       29.76R
ODESSA         MOCLDY    51  22  31 S12       29.77R
PECOS          MOCLDY    58  25  28 CALM      29.71R
PRESIDIO       FAIR      55  25  31 SW5       29.78R
SEMINOLE       MOCLDY    48  28  46 S9        29.75S
SNYDER         CLOUDY    51  26  38 SE7       29.79R
WINK           CLOUDY    55  26  32 SE14      29.71R
$$
...OTHER STATIONS IN TEXAS...

CITY           SKY/WX    TMP DP  RH WIND       PRES   REMARKS
ABILENE        MOCLDY    56  25  30 S15       29.82R
AMARILLO       CLOUDY    43  19  38 S12       29.69S WCI  37
AUSTIN         MOCLDY    49  35  58 S7        29.97R
BROWNSVILLE    CLOUDY    65  53  65 SE13      30.00S
CORPUS CHRISTI MOCLDY    60  50  69 SE13      29.99S
DALLAS FTW     PTCLDY    55  32  41 S15       29.91F
DEL RIO        MOCLDY    61  30  31 E12       29.86S
EL PASO        MOCLDY    63  17  17 SW24G30   29.69R
HOUSTON INT    MOCLDY    57  46  66 SE8       30.05F
LUBBOCK        CLOUDY    51  25  36 S10       29.73R
SAN ANGELO     CLOUDY    57  25  29 S12G18    29.82R
SAN ANTONIO    PTCLDY    56  35  45 SE12      29.96S
WACO           CLEAR     54  38  54 S15       29.96R
WICHITA FALLS  NOT AVBL
$$
...OTHER LOCATIONS IN NEW MEXICO...

CITY           SKY/WX    TMP DP  RH WIND       PRES   REMARKS
ALAMAGORDO     MOCLDY    57  14  18 S17G23    29.67R
ALBUQUERQUE    MOCLDY    43  18  36 VRB3      29.62R
CANNON AFB     HAZE      39  21  48 SE3       29.67S VSB 1/4
CLOVIS         CLEAR     36  18  48 SE7       29.68S WCI  30
HOLLOMAN AFB   NOT AVBL
ROSWELL        CLEAR     57  10  15 S12       29.65R
RUIDOSO        CLEAR     45   9  23 SW31G41   29.66S WCI  35
SANTA FE       CLOUDY    35  20  54 CALM      29.62R
TRUTH OR CONSE PTCLDY    55  14  19 S12       29.62R
TUCUMCARI      CLEAR     45  18  34 SE5       29.62R
$$



USA.gov is the U.S. government's official web portal to all federal, state and local government web resources and services.